{"data":{"norad_id":64881,"intl_designator":"2025-155F","name":"239ALFEROV (RS61S)","alt_names":[],"object_type":"PAYLOAD","status":"ACTIVE","operator":null,"country":"CIS","launch_date":"2025-07-25","launch_site_code":"VOSTO","launch_vehicle":null,"mission":null,"orbit_class":"UNKNOWN","rcs_meters":null,"size_class":null,"mass_kg":null,"dimensions":null,"purposes":["comms"],"wikipedia_slug":null,"has_3d_model":false,"image_url":null,"decayed_at":null,"tle_current":{"epoch":"2026-09-19T22:12:14.815008Z","epoch_age_seconds":64212,"freshness":"FRESH","line1":"1 64881U 25155F   26262.92517147  .00011303  00000+0  33150-3 0  9991","line2":"2 64881  97.4662 233.1779 0006561 179.4538 180.6714 15.35329169 95331","mean_motion":15.35329169,"eccentricity":0.0006561,"inclination_deg":97.4662,"raan_deg":233.1779,"arg_perigee_deg":179.4538,"mean_anomaly_deg":180.6714,"bstar":0.0003315,"rev_number":9533,"period_min":93.790962164674,"perigee_km":455.4564827581,"apogee_km":464.42941126457,"semimajor_km":6838.0799470113,"source":"CELESTRAK","updated_at":"2026-09-20T09:00:45.266598Z"}}}